Regional Weather Roundup
Issued by NWS

Home | Current Version | Previous Version | Text Only | Print | Product List | Glossary Off
Versions: 1 2 3 4 5 6 7 8 9 10 11 12 13 14 15 16 17 18 19 20 21 22 23 24 25 26 27 28 29 30 31 32 33 34 35 36 37 38 39 40 41 42 43 44 45 46 47 48 49 50

000
ASUS45 KBOU 031007
RWRCO

WEATHER ROUNDUP FOR COLORADO
NATIONAL WEATHER SERVICE DENVER/BOULDER CO
400 AM MDT WED JUN 03 2015

NOTE: "FAIR" INDICATES FEW OR NO CLOUDS BELOW 12000 FEET WITH NO
SIGNIFICANT WEATHER AND/OR OBSTRUCTIONS TO VISIBILITY.

COZ001>005-013-030-031-031100-
...NORTHWEST COLORADO...

CITY           SKY/WX    TMP DP  RH WIND       PRES   REMARKS
CRAIG          CLEAR     41  35  79 E3        30.05S
HAYDEN         CLEAR     43  32  65 NE7       30.07R
MEEKER         CLEAR     42  35  76 NE6       30.05F
MOUNT WERNER   NOT AVBL
STEAMBOAT SPGS CLEAR     42  33  71 CALM      30.08S
WALDEN         CLEAR     36  30  80 SE8       30.16R
$$

COZ006>008-011-031100-
...WEST CENTRAL VALLEYS...

CITY           SKY/WX    TMP DP  RH WIND       PRES   REMARKS
GRAND JUNCTION CLEAR     55  29  36 E10       29.91S
MONTROSE       CLEAR     56  28  34 SE9       30.01S
EAGLE          CLEAR     55  41  58 S3        30.10S
RIFLE          CLEAR     48  35  60 CALM      29.99F
DELTA          CLEAR     56  31  37 NE10      29.97F
NUCLA          CLEAR     55  25  30 E10       30.04S
$$

COZ017>023-064>068-031100-
...SOUTHWEST COLORADO...

CITY           SKY/WX    TMP DP  RH WIND       PRES   REMARKS
DURANGO        CLEAR     40  32  73 CALM      30.11R
CORTEZ         CLEAR     44  32  62 E8        30.05S
PAGOSA SPRINGS CLEAR     43  28  56 CALM      30.17S
TELLURIDE      CLEAR     48  24  38 SE6       30.25F
WOLF CREEK PAS NOT AVBL
$$

COZ009-010-012-014-032>034-037-058>063-031100-
...CENTRAL COLORADO...

CITY           SKY/WX    TMP DP  RH WIND       PRES   REMARKS
ASPEN          PTCLDY    45  26  47 SW10      30.13F
BUENA VISTA    PTCLDY    46  25  43 NW6       30.17S
COPPER MTN     CLEAR     45  10  24 SW10G17   30.40F
BERTHOUD PASS  FAIR      37  30  75 W28G40    30.40F
COTTONWOOD PAS NOT AVBL
GUNNISON       CLEAR     39  28  65 CALM      30.20S
KREMMLING      CLEAR     37  32  81 CALM      30.15S
LEADVILLE      PTCLDY    35  18  49 NE6       30.26F WCI  30
MONARCH PASS   CLEAR     43  16  33 W23       30.50S
SALIDA         PTCLDY    51  23  33 NW5       30.21S
SUNLIGHT       CLEAR     46  18  31 CALM      30.32F
WILKERSON PASS PTCLDY    46  10  23 W7        30.38S
$$

COZ069>075-031100-
...SAN LUIS VALLEY/SANGRE DE CRISTO MOUNTAINS...

CITY           SKY/WX    TMP DP  RH WIND       PRES   REMARKS
ALAMOSA        MOCLDY    42  29  59 VRB6      30.13F
LA VETA PASS   CLEAR    N/A N/A N/A MISG      30.27S
SAGUACHE       CLEAR     43  27  52 NW9       30.17S
$$

COZ035-036-038>040-031100-
...NORTHERN COLORADO FRONT RANGE...

CITY           SKY/WX    TMP DP  RH WIND       PRES   REMARKS
DENVER INTL AP CLEAR     57  43  59 W10       29.95R
DMNS CITY PARK   N/A     58  36  43 SW6       29.96S
AURORA         PTCLDY    57  38  48 SW8       29.98R
FRONT RANGE AP CLEAR     55  43  62 MISG      29.96R
ERIE MUNI ARPT CLEAR     51  43  73 CALM      29.94R
BOULDER MUN AP CLEAR     59  32  36 SE3       29.95R
CENTENNIAL     PTCLDY    56  36  47 CALM      29.98S
BROOMFIELD     CLEAR     59  30  33 SW5       29.97S
FORT COLLINS   CLEAR     55  43  62 NE12      29.97R
LONGMONT       CLEAR     53  38  55 W7        29.96R
$$

COZ041-046-047-076>085-087-088-031100-
...PIKES PEAK/PALMER DIVIDE AND SOUTHERN FOOTHILLS...

CITY           SKY/WX    TMP DP  RH WIND       PRES   REMARKS
COLO. SPRINGS  CLEAR     60  27  28 N15       30.00R
A. F. ACADEMY  CLEAR     53  26  35 N12       30.02R
ELLICOTT       CLEAR    N/A N/A N/A N12       29.97S
FALCON         CLEAR     58  28  31 N9        30.05R
FORT CARSON    CLEAR     59  31  34 N8        29.96R
LIMON          CLEAR     55  47  74 W9        29.91S
MONUMENT HILL  CLEAR     50  32  50 MISG      30.07R
TRINIDAD       CLEAR     53  34  48 W10       29.96R
$$

COZ042>045-048>051-090-091-031100-
...NORTHEAST COLORADO...

CITY           SKY/WX    TMP DP  RH WIND       PRES   REMARKS
GREELEY ARPT   CLEAR     59  50  72 NE12G22   29.96R
AKRON          MOCLDY    58  58 100 NE15G21   29.89R
BURLINGTON     CLEAR     57  54  89 W13       29.80R
WRAY           MOCLDY    61  61  99 NE20      29.82R
STERLING       CLEAR     61  55  82 NE9       29.88R
HOLYOKE        NOT AVBL
FORT MORGAN    CLEAR     58  52  79 N24G31    29.90R
$$

COZ086-089-092>099-031100-
...SOUTHEAST COLORADO...

CITY           SKY/WX    TMP DP  RH WIND       PRES   REMARKS
PUEBLO         CLEAR     57  43  59 W6        29.87S
LA JUNTA       CLEAR     60  46  59 W15       29.81S
LAMAR          CLEAR     56  47  71 SW3       29.77R
SPRINGFIELD      N/A     56  47  71 SW10      29.86R
$$



USA.gov is the U.S. government's official web portal to all federal, state and local government web resources and services.